This is the latest recevied weather packets stored in our database for station/object JA0ZJX-13. If no packets are shown the sender has not sent any weather packets the latest 10 day(s).
| Time | Temp. | Humidity | Pressure | Rain* | Wind** | Luminosity | Snow |
|---|---|---|---|---|---|---|---|
| 1777276414 | 14.44° C | 71% | 1009.3 hPa | 0 mm | - | 114 W/m² | - |
| 1777275804 | 14.44° C | 71% | 1009.1 hPa | 0 mm | - | 90 W/m² | - |
| 1777275213 | 15° C | 73% | 1009.1 hPa | 0 mm | - | 130 W/m² | - |
| 1777274622 | 15° C | 72% | 1008.9 hPa | 0 mm | - | 165 W/m² | - |
| 1777274016 | 15° C | 72% | 1008.9 hPa | 0 mm | - | 163 W/m² | - |
| 1777273406 | 15° C | 73% | 1009 hPa | 0 mm | - | 237 W/m² | - |
| 1777272815 | 14.44° C | 74% | 1009 hPa | 0 mm | - | 174 W/m² | - |
| 1777272205 | 14.44° C | 74% | 1008.7 hPa | 0 mm | - | 172 W/m² | - |
| 1777271619 | 14.44° C | 75% | 1008.5 hPa | 0 mm | - | 163 W/m² | - |
| 1777271007 | 14.44° C | 75% | 1008.5 hPa | 0 mm | - | 100 W/m² | - |
| 1777270416 | 14.44° C | 74% | 1008.4 hPa | 0 mm | - | 137 W/m² | - |
| 1777269808 | 14.44° C | 75% | 1008.3 hPa | 0 mm | - | 165 W/m² | - |
| 1777269218 | 14.44° C | 77% | 1008.2 hPa | 0 mm | - | 202 W/m² | - |
| 1777268606 | 13.89° C | 78% | 1008.1 hPa | 0 mm | - | 287 W/m² | - |
| 1777268015 | 13.89° C | 79% | 1007.9 hPa | 0 mm | - | 174 W/m² | - |
| 1777267409 | 13.89° C | 80% | 1007.9 hPa | 0 mm | - | 158 W/m² | - |
| 1777266818 | 13.89° C | 80% | 1007.8 hPa | 0 mm | - | 188 W/m² | - |
| 1777266207 | 13.33° C | 81% | 1007.7 hPa | 0 mm | - | 209 W/m² | - |
| 1777265614 | 13.89° C | 81% | 1007.7 hPa | 0 mm | - | 181 W/m² | - |
| 1777265007 | 13.33° C | 80% | 1007.6 hPa | 0 mm | - | 134 W/m² | - |
| 1777264417 | 13.89° C | 81% | 1007.7 hPa | 0 mm | - | 160 W/m² | - |
| 1777263806 | 13.89° C | 82% | 1007.7 hPa | 0 mm | - | 232 W/m² | - |
| 1777263216 | 13.89° C | 84% | 1007.7 hPa | 0 mm | - | 229 W/m² | - |
| 1777262609 | 13.33° C | 86% | 1007.6 hPa | 0 mm | - | 413 W/m² | - |
| 1777262019 | 13.33° C | 87% | 1007.7 hPa | 0 mm | - | 323 W/m² | - |
* Rain latest hour (hover to see other rain measurements)
** Current wind speed in m/s (hover to see current wind gust speed)